Fort Stockton, TX

3:18 AM CDT on August 27, 2016 (GMT -0500)
Fort Stockton-Pecos County

Weather History for KFST - November, 2011

Change the Weather History Date:

Wednesday, November 2, 2011

  Actual Average Record
Temperature  
Mean Temperature 64 °F -  
Max Temperature 86 °F 70 °F 87 °F (2012)
Min Temperature 43 °F 47 °F 35 °F (2004)
Growing Degree Days 14 (Base 50)    
Moisture  
Dew Point 32 °F    
Average Humidity 36    
Maximum Humidity 69    
Minimum Humidity 8    
Precipitation  
Precipitation 0.00 in - - ()
Sea Level Pressure  
Sea Level Pressure 30.03 in    
Wind  
Wind Speed 18 mph (NNW)    
Max Wind Speed 38 mph    
Max Gust Speed 48 mph    
Visibility 8 miles    
Events      
Averages and records for this station are not official NWS values.
T = Trace of Precipitation, MM = Missing Value Source: NWS Daily Summary

Daily Weather History Graph

Daily Weather History Graph

Search for Another Location

Airport or City:

Trip Planner

Search our weather history database for the weather conditions in past years. The results will help you decide how hot, cold, wet, or windy it might be!

Date:

Astronomy

Nov. 02, 2011 Rise Set
Actual Time 8:07 AM CDT 7:02 PM CDT
Civil Twilight 7:42 AM CDT 7:27 PM CDT
Nautical Twilight 7:13 AM CDT 7:56 PM CDT
Astronomical Twilight 6:45 AM CDT 8:24 PM CDT
Moon 2:28 PM CDT (11/2) 12:50 AM CDT (11/2)
Length of Visible Light 11h 45m
Length of Day
10h 55m
Waxing Crescent, 50% of the Moon is Illuminated
Nov 2
Waxing Crescent
Nov 10
Full
Nov 18
Last Quarter
Nov 25
New
Dec 2
First Quarter

Hourly Weather History & Observations

Time (CDT) Temp. Windchill Dew Point Humidity Pressure Visibility Wind Dir Wind Speed Gust Speed Precip Events Conditions
12:53 AM 64.9 °F - 46.9 °F 52% 29.78 in 10.0 mi SSE 19.6 mph - N/A   Clear
1:53 AM 64.0 °F - 46.9 °F 54% 29.77 in 10.0 mi South 18.4 mph - N/A   Clear
2:53 AM 62.1 °F - 46.9 °F 58% 29.76 in 10.0 mi SSE 17.3 mph - N/A   Clear
3:53 AM 62.1 °F - 46.9 °F 58% 29.76 in 10.0 mi South 17.3 mph - N/A   Clear
4:53 AM 60.1 °F - 46.9 °F 62% 29.80 in 10.0 mi South 6.9 mph - N/A   Clear
5:53 AM 57.9 °F - 46.9 °F 67% 29.82 in 10.0 mi South 11.5 mph - N/A   Clear
6:53 AM 55.0 °F - 45.0 °F 69% 29.84 in 10.0 mi South 8.1 mph - N/A   Clear
7:53 AM 55.9 °F - 42.1 °F 60% 29.86 in 10.0 mi South 9.2 mph - N/A   Clear
8:53 AM 63.0 °F - 37.9 °F 40% 29.87 in 3.0 mi SSW 12.7 mph - N/A   Haze
9:53 AM 73.0 °F - 34.0 °F 24% 29.88 in 10.0 mi WSW 11.5 mph - N/A   Clear
10:53 AM 79.0 °F - 30.9 °F 17% 29.89 in 10.0 mi WSW 12.7 mph - N/A   Clear
11:53 AM 82.9 °F - 21.9 °F 11% 29.89 in 10.0 mi West 13.8 mph 21.9 mph N/A   Clear
12:53 PM 84.9 °F - 17.1 °F 8% 29.90 in 10.0 mi WNW 19.6 mph 31.1 mph N/A   Clear
1:53 PM 84.0 °F - 17.1 °F 8% 29.91 in 10.0 mi WNW 18.4 mph 26.5 mph N/A   Clear
2:51 PM 77.0 °F - 30.2 °F 18% 30.06 in 2.5 mi North 36.8 mph 48.3 mph N/A   Haze
2:53 PM 77.0 °F - 30.9 °F 19% 29.94 in 3.0 mi North 38.0 mph 48.3 mph N/A   Haze
3:01 PM 75.2 °F - 30.2 °F 19% 30.07 in 4.0 mi North 34.5 mph 46.0 mph N/A   Haze
3:53 PM 69.1 °F - 30.0 °F 23% 30.03 in 7.0 mi North 29.9 mph 39.1 mph N/A   Overcast
4:28 PM 68.0 °F - 30.2 °F 24% 30.18 in 6.0 mi North 24.2 mph 34.5 mph N/A   Haze
4:53 PM 64.9 °F - 28.9 °F 26% 30.11 in 6.0 mi North 25.3 mph 35.7 mph N/A   Haze
5:53 PM 62.1 °F - 28.0 °F 28% 30.18 in 6.0 mi North 25.3 mph 33.4 mph N/A   Haze
6:53 PM 57.0 °F - 25.0 °F 29% 30.24 in 6.0 mi North 20.7 mph 32.2 mph N/A   Haze
7:53 PM 54.0 °F - 24.1 °F 31% 30.29 in 8.0 mi North 17.3 mph - N/A   Overcast
8:53 PM 52.0 °F - 24.1 °F 34% 30.33 in 9.0 mi North 17.3 mph 25.3 mph N/A   Overcast
9:53 PM 48.0 °F - 25.0 °F 41% 30.38 in 7.0 mi North 17.3 mph - N/A   Overcast
10:38 PM 46.4 °F 39.0 °F 24.8 °F 43% 30.47 in 9.0 mi North 19.6 mph 24.2 mph N/A   Scattered Clouds
10:53 PM 45.0 °F 38.2 °F 25.0 °F 46% 30.39 in 10.0 mi North 15.0 mph - N/A   Clear
11:53 PM 43.0 °F 38.8 °F 24.1 °F 47% 30.41 in 10.0 mi North 6.9 mph - N/A   Clear